[[{"header":{"parameterUnit":"m.s-1","parameterCategory":2,"la1":30.2991,"la2":30.254,"lo1":-89.0895,"lo2":-89.0444,"dy":0.0017,"dx":0.0017,"nx":28,"ny":28,"refTime":"2025-04-17T21:00:00:Z","depth":"0","parameterNumber":2,"parameterNumberName":"U-component_of_CURRENTS"},"data":[0,0,0,0,0,0,0,0,0,0,0,0,0,0,0,0,0,0,0,0,0,0,0,0,0,0,0,0,0,0,0,0,0,0,0,0,0,0,0,0,0,0,0,0,0,0,0,0,0,0,0,0,0,0,0,0,0,0,-0.3128,-0.3129,0,-0.3219,-0.322,-0.3221,-0.3308,-0.3309,-0.331,-0.3311,-0.3478,-0.3481,-0.3484,0,0,0,0,0,0,0,0,0,0,0,0,0,-0.3007,-0.3009,-0.3128,-0.3129,-0.313,-0.3219,-0.322,-0.3221,-0.3308,-0.3309,-0.3311,-0.3312,-0.3477,-0.3481,-0.3485,0,0,0,0,0,0,0,0,0,0,0,0,0,-0.3075,-0.301,-0.3128,-0.3184,-0.319,-0.3218,-0.322,-0.3221,-0.3308,-0.3309,-0.3311,-0.3313,-0.3475,-0.348,-0.3485,-0.3483,0,0,-0.3501,-0.3503,0,0,0,0,0,0,0,0,-0.3071,-0.3079,-0.3175,-0.3181,-0.3187,-0.3254,-0.3238,-0.3313,-0.3307,-0.3263,-0.3311,-0.3313,-0.3409,-0.3419,-0.3431,-0.3491,-0.3498,-0.3501,-0.3504,-0.3506,-0.3508,0,0,0,0,0,0,0,-0.3066,-0.3076,-0.3164,-0.3176,-0.3184,-0.3197,-0.3209,-0.3252,-0.3327,-0.3267,-0.3274,-0.3283,-0.3413,-0.3426,-0.3436,-0.35,-0.3501,-0.3505,-0.3509,-0.3511,-0.3484,-0.348,0,0,0,0,0,0,-0.3055,-0.3071,-0.3161,-0.3167,-0.3132,-0.3198,-0.3211,-0.3231,-0.3325,-0.334,-0.3282,-0.3287,-0.3417,-0.343,-0.3443,-0.3416,-0.3506,-0.3511,-0.3514,-0.3487,-0.3483,-0.3479,0,0,0,0,0,0,-0.3052,-0.3062,-0.3158,-0.312,-0.3134,-0.3198,-0.322,-0.3232,-0.325,-0.3335,-0.3352,-0.3288,-0.3419,-0.3435,-0.3457,-0.3425,-0.3513,-0.3518,-0.3492,-0.3486,-0.3481,-0.3383,0,0,0,0,0,0,-0.3048,-0.3061,-0.3065,-0.312,-0.3135,-0.3163,-0.3218,-0.3232,-0.3253,-0.3261,-0.3346,-0.3363,-0.3421,-0.3448,-0.3461,-0.3434,-0.3522,-0.3497,-0.3489,-0.3483,-0.3391,-0.3375,-0.3361,0,0,0,0,0,-0.3043,-0.3043,-0.3065,-0.3075,-0.3142,-0.3162,-0.317,-0.3222,-0.3252,-0.3247,-0.3292,-0.3361,-0.3412,-0.345,-0.3466,-0.3439,-0.35,-0.3491,-0.3483,-0.3398,-0.3378,-0.3362,0,0,0,0,0,0,-0.2994,-0.3054,-0.3079,-0.3098,-0.3121,-0.3176,-0.3178,-0.3211,-0.3243,-0.3254,-0.3333,-0.3352,-0.3343,-0.3393,-0.3432,-0.3399,-0.3459,-0.3453,-0.3388,-0.3371,-0.3356,-0.3381,-0.3526,0,0,0,0,0,-0.2982,-0.2997,-0.3049,-0.3058,-0.307,-0.312,-0.3134,-0.3168,-0.3205,-0.3222,-0.3271,-0.3307,-0.3317,-0.3348,-0.3361,-0.3371,-0.3396,-0.3351,-0.3335,-0.3323,-0.3347,-0.3337,-0.3325,-0.3451,-0.3451,-0.3451,0,0,-0.2963,-0.2997,-0.3005,-0.3047,-0.3073,-0.309,-0.3133,-0.3148,-0.3159,-0.3234,-0.3248,-0.3254,-0.3297,-0.3287,-0.3289,-0.3337,-0.3285,-0.3312,-0.3302,-0.3334,-0.3327,-0.3316,-0.3306,-0.3445,-0.3446,-0.3447,0,0,-0.293,-0.2962,-0.2966,-0.2987,-0.3022,-0.3053,-0.3053,-0.3095,-0.311,-0.3119,-0.3148,-0.3132,-0.3181,-0.3189,-0.3206,-0.3114,-0.3187,-0.3109,-0.3091,-0.3079,-0.3071,-0.3064,-0.3031,-0.3022,-0.3126,-0.3125,-0.3125,0,-0.2904,-0.2929,-0.2963,-0.2975,-0.2994,-0.3035,-0.3043,-0.3058,-0.3094,-0.3102,-0.3111,-0.3115,-0.3133,-0.3128,-0.3084,-0.3086,-0.3094,-0.3167,-0.3065,-0.3059,-0.3054,-0.3022,-0.3014,-0.312,-0.312,-0.3121,-0.3121,0,-0.2882,-0.2903,-0.2902,-0.294,-0.2956,-0.2963,-0.2998,-0.3001,-0.3019,-0.304,-0.3017,-0.3015,-0.3035,-0.3002,-0.3028,-0.2985,-0.3002,-0.3031,-0.3126,-0.3036,-0.3007,-0.3,-0.3111,-0.3113,-0.3115,-0.3117,0,0,-0.2819,-0.2878,-0.2877,-0.29,-0.2943,-0.2955,-0.2962,-0.2985,-0.3002,-0.2989,-0.3002,-0.2952,-0.2956,-0.2969,-0.2968,-0.2953,-0.2877,-0.2983,-0.2985,-0.2976,-0.2843,-0.273,-0.2712,-0.2906,-0.2905,-0.2904,-0.2822,0,-0.2791,-0.2813,-0.285,-0.2867,-0.2884,-0.2928,-0.2939,-0.2962,-0.2978,-0.2992,-0.2972,-0.2969,-0.2946,-0.2945,-0.2918,-0.2907,-0.2863,-0.2896,-0.2912,-0.2912,-0.2844,-0.2701,-0.2602,-0.2511,-0.2816,-0.2815,-0.2814,0,-0.2752,-0.2782,-0.2797,-0.2858,-0.2869,-0.2882,-0.2922,-0.2939,-0.2969,-0.2982,-0.2979,-0.2984,-0.2951,-0.2938,-0.2876,-0.291,-0.2861,-0.2836,-0.2834,-0.2773,-0.2786,-0.2656,-0.2488,-0.2474,-0.2804,-0.2805,-0.2806,0,-0.2689,-0.274,-0.2755,-0.2773,-0.2842,-0.2854,-0.2887,-0.2927,-0.2944,-0.2977,-0.2992,-0.2977,-0.2965,-0.2923,-0.2851,-0.2879,-0.278,-0.2817,-0.2655,-0.2647,-0.2588,-0.2575,-0.2437,-0.2742,-0.2742,-0.2742,-0.2742,0,-0.2644,-0.2652,-0.2729,-0.2737,-0.2755,-0.2821,-0.2841,-0.2876,-0.2928,-0.2941,-0.2978,-0.2967,-0.2963,-0.2912,-0.2854,-0.2714,-0.2773,-0.2621,-0.2608,-0.254,-0.2524,-0.2535,-0.2579,-0.2739,-0.274,-0.274,-0.2741,0,-0.2557,-0.2611,-0.2631,-0.2704,-0.2723,-0.2733,-0.2805,-0.2824,-0.2888,-0.2909,-0.2919,-0.2953,-0.2881,-0.2836,-0.2759,-0.2692,-0.2536,-0.2517,-0.2418,-0.2393,-0.2233,-0.2275,-0.2162,-0.2102,-0.234,-0.2336,-0.2333,0,-0.2509,-0.2512,-0.2581,-0.2591,-0.2617,-0.2656,-0.268,-0.2773,-0.2802,-0.2874,-0.2873,-0.284,-0.276,-0.2606,-0.2493,-0.2347,-0.2371,-0.2185,-0.2199,-0.2171,-0.2212,-0.2258,-0.2221,-0.207,-0.2065,-0.2061,-0.2058,0,-0.2407,-0.2433,-0.2452,-0.248,-0.2505,-0.2539,-0.2589,-0.2615,-0.2722,-0.2733,-0.2718,-0.2661,-0.2527,-0.2335,-0.2168,-0.208,-0.2143,-0.2096,-0.2105,-0.1999,-0.2006,-0.196,-0.2179,-0.2023,-0.2026,-0.2029,-0.2031,-0.2032,-0.2307,-0.2299,-0.2329,-0.2341,-0.2377,-0.2399,-0.2389,-0.2455,-0.2467,-0.2468,-0.2504,-0.2376,-0.2248,-0.1985,-0.1892,-0.1743,-0.1834,-0.1712,-0.1767,-0.1817,-0.1743,-0.1854,-0.1663,-0.1665,-0.1666,-0.1667,-0.1668,0,-0.2174,-0.2182,-0.2189,-0.2208,-0.2208,-0.2269,-0.2302,-0.2262,-0.2227,-0.2229,-0.2165,-0.2003,-0.1805,-0.1714,-0.1555,-0.1466,-0.1458,-0.145,-0.1522,-0.15,-0.1615,-0.1586,-0.1323,-0.1323,-0.1323,-0.1323,-0.1323,-0.1323,-0.2101,-0.2057,-0.2069,-0.2023,-0.2049,-0.1995,-0.1986,-0.1908,-0.1865,-0.1715,-0.1641,-0.1592,-0.1535,-0.1601,-0.1461,-0.138,-0.1381,-0.1322,-0.1366,-0.1496,-0.1527,-0.1557,-0.1536,-0.1267,-0.1267,-0.1197,-0.1196,-0.1196]},{"header":{"parameterUnit":"m.s-1","parameterCategory":2,"la1":30.2991,"la2":30.254,"lo1":-89.0895,"lo2":-89.0444,"dy":0.0017,"dx":0.0017,"nx":28,"ny":28,"refTime":"2025-04-17T21:00:00:Z","depth":"0","parameterNumber":3,"parameterNumberName":"V-component_of_CURRENTS"},"data":[0,0,0,0,0,0,0,0,0,0,0,0,0,0,0,0,0,0,0,0,0,0,0,0,0,0,0,0,0,0,0,0,0,0,0,0,0,0,0,0,0,0,0,0,0,0,0,0,0,0,0,0,0,0,0,0,0,0,-0.0445,-0.0444,0,-0.0327,-0.0326,-0.0324,-0.0218,-0.0217,-0.0216,-0.0216,0.0073,0.008,0.0087,0,0,0,0,0,0,0,0,0,0,0,0,0,-0.048,-0.048,-0.0445,-0.0444,-0.0443,-0.0328,-0.0326,-0.0324,-0.0218,-0.0217,-0.0216,-0.0215,0.0071,0.0079,0.0088,0,0,0,0,0,0,0,0,0,0,0,0,0,-0.042,-0.048,-0.0445,-0.038,-0.0373,-0.0328,-0.0326,-0.0323,-0.0218,-0.0217,-0.0216,-0.0215,0.0068,0.0078,0.0089,0.0127,0,0,0.012,0.0125,0,0,0,0,0,0,0,0,-0.0424,-0.0418,-0.039,-0.0384,-0.0377,-0.029,-0.0232,-0.0166,-0.0219,-0.0272,-0.0215,-0.0214,-0.0036,-0.0017,0.0006,0.014,0.0153,0.0121,0.0127,0.0132,0.0135,0,0,0,0,0,0,0,-0.0428,-0.0422,-0.0394,-0.039,-0.0381,-0.0323,-0.0313,-0.0219,-0.0156,-0.0268,-0.0261,-0.0255,-0.003,-0.0004,0.0014,0.0157,0.0121,0.013,0.0136,0.014,0.0316,0.0315,0,0,0,0,0,0,-0.0458,-0.0427,-0.0398,-0.0391,-0.0402,-0.0324,-0.0313,-0.0315,-0.0161,-0.0139,-0.0256,-0.0251,-0.0023,0.0002,0.0025,0.008,0.0132,0.0142,0.0147,0.0318,0.0316,0.0314,0,0,0,0,0,0,-0.046,-0.0457,-0.0403,-0.0409,-0.0398,-0.0326,-0.0329,-0.0314,-0.0286,-0.0155,-0.0128,-0.0244,-0.0021,0.001,0.0087,0.0092,0.0146,0.0156,0.0319,0.0317,0.0315,0.019,0,0,0,0,0,0,-0.0461,-0.0459,-0.0467,-0.0412,-0.0399,-0.0382,-0.033,-0.0313,-0.0287,-0.0278,-0.0136,-0.0108,-0.0017,0.007,0.0097,0.0107,0.0164,0.0321,0.0318,0.0316,0.0197,0.0184,0.0174,0,0,0,0,0,-0.0463,-0.0481,-0.0468,-0.0465,-0.0415,-0.0383,-0.0371,-0.0311,-0.0288,-0.028,-0.0201,-0.0112,0.0071,0.0077,0.0109,0.0123,0.0323,0.0319,0.0316,0.0202,0.0187,0.0174,0,0,0,0,0,0,-0.0497,-0.0471,-0.0456,-0.0464,-0.0431,-0.0367,-0.0355,-0.0323,-0.0256,-0.0244,-0.0124,-0.0091,-0.0028,0.0054,0.0057,0.0158,0.0209,0.0212,0.0112,0.0099,0.0088,0.0082,0.0172,0,0,0,0,0,-0.0515,-0.052,-0.0483,-0.0489,-0.0479,-0.0422,-0.0402,-0.0366,-0.0305,-0.0275,-0.0185,-0.0093,-0.002,0.0042,0.0117,0.0187,0.0268,0.021,0.0199,0.0189,0.0201,0.0295,0.0294,0.0303,0.0303,0.0303,0,0,-0.0529,-0.0517,-0.0519,-0.0497,-0.0465,-0.0455,-0.0405,-0.0384,-0.0365,-0.0251,-0.0198,-0.0131,-0.0018,0.0044,0.0082,0.0121,0.0225,0.0184,0.0175,0.0194,0.0291,0.0291,0.029,0.03,0.0301,0.0301,0,0,-0.0563,-0.0554,-0.0568,-0.0549,-0.0519,-0.0483,-0.0486,-0.0431,-0.0396,-0.0348,-0.0275,-0.021,-0.0087,-0.0008,0.0049,0.0022,0.0145,0.0039,0.0008,0.0096,0.0098,0.0099,0.0189,0.02,0.0052,0.0052,0.0052,0,-0.0581,-0.0597,-0.0565,-0.0572,-0.0561,-0.0505,-0.0512,-0.047,-0.0398,-0.0366,-0.0345,-0.0195,-0.0106,-0.0018,-0.0037,0.0004,0.0068,0.0053,0.0084,0.0088,0.0092,0.0184,0.0197,0.0046,0.0046,0.0047,0.0048,0,-0.0622,-0.0632,-0.0639,-0.0631,-0.0613,-0.0612,-0.0561,-0.0534,-0.0492,-0.0439,-0.0366,-0.0266,-0.0168,-0.0144,-0.009,-0.0025,0.0014,0.0043,0.0121,0.0084,0.0182,0.0199,0.0036,0.0039,0.0041,0.0042,0,0,-0.0666,-0.067,-0.0671,-0.068,-0.0647,-0.0637,-0.0612,-0.0564,-0.0535,-0.0466,-0.0418,-0.0316,-0.0264,-0.02,-0.0129,-0.0051,0.002,-0.0001,0.0007,0.0093,0.0218,0.024,0.0261,0.0051,0.0053,0.0055,0.0271,0,-0.0706,-0.0746,-0.0724,-0.0745,-0.0761,-0.0705,-0.0684,-0.0629,-0.0564,-0.0503,-0.0399,-0.0328,-0.0283,-0.0242,-0.0163,-0.0021,0.006,-0.004,0.0239,0.0248,0.0277,0.028,0.0306,0.05,0.0288,0.0291,0.0293,0,-0.075,-0.0773,-0.0813,-0.081,-0.0808,-0.0805,-0.0755,-0.0726,-0.0621,-0.0566,-0.0477,-0.0392,-0.0268,-0.024,0.0,-0.0068,0.0059,0.0166,0.0178,0.026,0.0301,0.0507,0.054,0.0687,0.032,0.0318,0.0316,0,-0.0808,-0.0828,-0.0866,-0.0868,-0.0855,-0.0851,-0.0832,-0.0747,-0.0712,-0.0603,-0.0551,-0.0404,-0.0304,-0.0146,0.0069,0.0039,0.0336,0.0335,0.0479,0.0483,0.0595,0.0604,0.0814,0.0498,0.0497,0.0497,0.0496,0,-0.0866,-0.0891,-0.09,-0.0924,-0.0952,-0.0914,-0.0906,-0.0858,-0.0774,-0.071,-0.0593,-0.0492,-0.0276,-0.0085,0.0077,0.0342,0.0356,0.0488,0.0545,0.0548,0.055,0.0756,0.0799,0.0505,0.0503,0.0502,0.05,0,-0.0924,-0.0932,-0.0976,-0.0983,-0.0987,-0.1006,-0.0977,-0.0957,-0.0865,-0.0776,-0.0743,-0.0527,-0.0268,-0.0046,0.0259,0.0381,0.0711,0.0696,0.0682,0.0731,0.0956,0.0989,0.1265,0.136,0.0884,0.0886,0.0888,0,-0.096,-0.0994,-0.1032,-0.106,-0.1069,-0.1085,-0.1088,-0.1019,-0.0978,-0.0777,-0.0729,-0.0469,-0.0254,0.0186,0.0443,0.0743,0.0847,0.093,0.0869,0.099,0.107,0.1085,0.1146,0.0978,0.098,0.0982,0.0984,0,-0.1021,-0.1034,-0.1071,-0.1138,-0.1164,-0.1177,-0.1165,-0.1141,-0.1017,-0.089,-0.066,-0.0472,-0.0062,0.0302,0.0658,0.0829,0.1024,0.0973,0.1126,0.1183,0.1193,0.1304,0.081,0.1,0.0998,0.0997,0.0996,0.0995,-0.1054,-0.1099,-0.1148,-0.1204,-0.1237,-0.1238,-0.1185,-0.1125,-0.1009,-0.0737,-0.0623,-0.0247,0.0173,0.0685,0.0872,0.1233,0.1188,0.1338,0.1379,0.1392,0.1448,0.0973,0.1193,0.1193,0.1192,0.1192,0.1192,0,-0.1089,-0.114,-0.1206,-0.1256,-0.128,-0.1277,-0.1199,-0.1066,-0.0865,-0.0625,-0.0371,0.0163,0.0589,0.098,0.1429,0.1629,0.1668,0.1734,0.178,0.1832,0.1461,0.1425,0.1672,0.1671,0.1671,0.1671,0.1671,0.1671,-0.1109,-0.118,-0.1219,-0.1269,-0.1285,-0.1168,-0.1079,-0.0865,-0.0629,-0.0161,0.021,0.0456,0.0926,0.1541,0.1966,0.2012,0.2189,0.2167,0.227,0.2014,0.198,0.1948,0.1927,0.2275,0.2275,0.2635,0.2638,0.2641]}],[{"header":{"parameterUnit":"m.s-1","parameterCategory":2,"la1":30.2991,"la2":30.254,"lo1":-89.0895,"lo2":-89.0444,"dy":0.0017,"dx":0.0017,"nx":28,"ny":28,"refTime":"2025-04-17T21:00:00:Z","depth":"2","parameterNumber":2,"parameterNumberName":"U-component_of_CURRENTS"},"data":[0,0,0,0,0,0,0,0,0,0,0,0,0,0,0,0,0,0,0,0,0,0,0,0,0,0,0,0,0,0,0,0,0,0,0,0,0,0,0,0,0,0,0,0,0,0,0,0,0,0,0,0,0,0,0,0,0,0,-0.2821,-0.2822,0,-0.2883,-0.2883,-0.2884,-0.2931,-0.2932,-0.2932,-0.2933,-0.299,-0.2991,-0.2991,0,0,0,0,0,0,0,0,0,0,0,0,0,-0.2717,-0.2718,-0.2821,-0.2822,-0.2823,-0.2883,-0.2883,-0.2884,-0.2931,-0.2932,-0.2933,-0.2933,-0.2989,-0.299,-0.2992,0,0,0,0,0,0,0,0,0,0,0,0,0,-0.2766,-0.2719,-0.282,-0.2855,-0.2859,-0.2883,-0.2883,-0.2884,-0.2931,-0.2932,-0.2933,-0.2934,-0.2989,-0.299,-0.2992,-0.298,0,0,-0.2996,-0.2996,0,0,0,0,0,0,0,0,-0.2763,-0.277,-0.2849,-0.2853,-0.2857,-0.2902,-0.2868,-0.2917,-0.2931,-0.2901,-0.2933,-0.2934,-0.2961,-0.2965,-0.2971,-0.2982,-0.2985,-0.2996,-0.2997,-0.2997,-0.2998,0,0,0,0,0,0,0,-0.276,-0.2767,-0.2843,-0.285,-0.2855,-0.2859,-0.2867,-0.2877,-0.2922,-0.2904,-0.2908,-0.2918,-0.2963,-0.2969,-0.2972,-0.2986,-0.2996,-0.2997,-0.2998,-0.2998,-0.2968,-0.2966,0,0,0,0,0,0,-0.2758,-0.2764,-0.2841,-0.2845,-0.2815,-0.286,-0.2869,-0.2885,-0.2923,-0.293,-0.2917,-0.292,-0.2966,-0.2971,-0.2974,-0.2957,-0.2997,-0.2998,-0.2999,-0.2969,-0.2968,-0.2966,0,0,0,0,0,0,-0.2756,-0.2764,-0.2838,-0.2807,-0.2818,-0.2862,-0.2878,-0.2886,-0.2901,-0.2934,-0.2941,-0.2927,-0.2967,-0.2973,-0.2977,-0.296,-0.2999,-0.3,-0.2971,-0.2969,-0.2967,-0.2926,0,0,0,0,0,0,-0.2752,-0.2763,-0.2769,-0.2808,-0.2819,-0.2845,-0.2878,-0.2886,-0.2907,-0.2912,-0.2944,-0.295,-0.2969,-0.2974,-0.2978,-0.2962,-0.3001,-0.2973,-0.297,-0.2967,-0.2929,-0.2922,-0.2916,0,0,0,0,0,-0.2748,-0.2749,-0.2769,-0.2779,-0.2828,-0.2844,-0.2849,-0.2882,-0.2906,-0.2902,-0.2924,-0.2949,-0.2958,-0.2975,-0.2979,-0.2963,-0.2975,-0.2971,-0.2968,-0.2932,-0.2923,-0.2916,0,0,0,0,0,0,-0.2705,-0.2755,-0.2778,-0.2795,-0.2816,-0.2853,-0.2854,-0.2882,-0.2896,-0.2903,-0.2936,-0.2942,-0.293,-0.295,-0.2968,-0.2941,-0.2967,-0.2964,-0.2938,-0.2931,-0.2924,-0.2931,-0.3002,0,0,0,0,0,-0.27,-0.2713,-0.2758,-0.2767,-0.2779,-0.2818,-0.2829,-0.2853,-0.2875,-0.2884,-0.2905,-0.2919,-0.2916,-0.2928,-0.2924,-0.2924,-0.2925,-0.2911,-0.2905,-0.29,-0.2905,-0.2893,-0.2887,-0.2954,-0.2954,-0.2954,0,0,-0.2684,-0.2714,-0.2721,-0.2758,-0.2779,-0.2794,-0.2826,-0.284,-0.2851,-0.2886,-0.2893,-0.2892,-0.2905,-0.2893,-0.2891,-0.2914,-0.2874,-0.2895,-0.2891,-0.2899,-0.2889,-0.2883,-0.2877,-0.2952,-0.2952,-0.2952,0,0,-0.2657,-0.2686,-0.2691,-0.2711,-0.2744,-0.2768,-0.2774,-0.2808,-0.2819,-0.2828,-0.2842,-0.2829,-0.2848,-0.2843,-0.2847,-0.2803,-0.2829,-0.2804,-0.2796,-0.2784,-0.2779,-0.2775,-0.2741,-0.2734,-0.2816,-0.2816,-0.2816,0,-0.2638,-0.266,-0.269,-0.2702,-0.2721,-0.2758,-0.2769,-0.278,-0.2809,-0.2817,-0.2823,-0.2822,-0.282,-0.2811,-0.2789,-0.2789,-0.2789,-0.2829,-0.2778,-0.2774,-0.277,-0.2737,-0.273,-0.2813,-0.2813,-0.2814,-0.2814,0,-0.2621,-0.2642,-0.2641,-0.2678,-0.2694,-0.2703,-0.2736,-0.2744,-0.2765,-0.2783,-0.2771,-0.2762,-0.2771,-0.2752,-0.2762,-0.2733,-0.274,-0.276,-0.2803,-0.2761,-0.2728,-0.2721,-0.281,-0.2811,-0.2811,-0.2812,0,0,-0.2568,-0.2622,-0.2622,-0.2644,-0.2686,-0.2698,-0.271,-0.2735,-0.2753,-0.2751,-0.2766,-0.2727,-0.2733,-0.2735,-0.2732,-0.2717,-0.2665,-0.2734,-0.2735,-0.271,-0.263,-0.2527,-0.2511,-0.2692,-0.2691,-0.269,-0.2607,0,-0.2547,-0.257,-0.2603,-0.2623,-0.264,-0.2682,-0.2696,-0.2721,-0.274,-0.2756,-0.2742,-0.2743,-0.2726,-0.2728,-0.2706,-0.2688,-0.2652,-0.2685,-0.2667,-0.2665,-0.2588,-0.2501,-0.2344,-0.2248,-0.2601,-0.26,-0.2599,0,-0.2516,-0.2544,-0.2563,-0.2619,-0.263,-0.2645,-0.2687,-0.2705,-0.2736,-0.2752,-0.2755,-0.2761,-0.2733,-0.2725,-0.2664,-0.2696,-0.2651,-0.2626,-0.2623,-0.2543,-0.2551,-0.2351,-0.2224,-0.2589,-0.259,-0.2591,-0.2591,0,-0.2463,-0.2511,-0.2529,-0.2547,-0.2612,-0.2626,-0.2658,-0.2698,-0.2714,-0.275,-0.2764,-0.2755,-0.274,-0.2705,-0.264,-0.2665,-0.2569,-0.26,-0.2453,-0.2446,-0.2314,-0.2295,-0.2532,-0.2532,-0.2532,-0.2532,-0.2533,0,-0.2427,-0.2438,-0.2509,-0.2518,-0.2539,-0.26,-0.2621,-0.2655,-0.2703,-0.2711,-0.2754,-0.274,-0.2736,-0.2689,-0.2641,-0.251,-0.2563,-0.2423,-0.2409,-0.2289,-0.227,-0.2583,-0.259,-0.2529,-0.253,-0.2531,-0.2531,0,-0.2353,-0.2404,-0.2425,-0.2495,-0.2512,-0.2524,-0.2589,-0.2605,-0.2667,-0.2678,-0.2689,-0.2718,-0.2651,-0.2616,-0.2543,-0.248,-0.2391,-0.2327,-0.217,-0.2138,-0.2279,-0.2285,-0.2165,-0.216,-0.2156,-0.2153,-0.215,0,-0.2313,-0.2319,-0.2384,-0.2392,-0.2419,-0.2455,-0.2475,-0.2561,-0.2579,-0.2639,-0.2628,-0.2601,-0.2524,-0.2386,-0.2282,-0.2155,-0.2252,-0.195,-0.1952,-0.2237,-0.2238,-0.225,-0.226,-0.1753,-0.1747,-0.1742,-0.1739,0,-0.2225,-0.2252,-0.2269,-0.2294,-0.2315,-0.234,-0.2379,-0.239,-0.2479,-0.2487,-0.246,-0.2409,-0.2287,-0.2079,-0.194,-0.1858,-0.1967,-0.1848,-0.2176,-0.1873,-0.1843,-0.1846,-0.1871,-0.1697,-0.1701,-0.1704,-0.1707,-0.1708,-0.2138,-0.2131,-0.2157,-0.2165,-0.2194,-0.2194,-0.2154,-0.2203,-0.2196,-0.2163,-0.2227,-0.2079,-0.203,-0.1707,-0.1594,-0.1514,-0.1648,-0.1592,-0.1609,-0.1631,-0.1601,-0.1566,-0.1361,-0.1363,-0.1365,-0.1366,-0.1368,0,-0.2018,-0.2021,-0.2025,-0.2023,-0.1989,-0.2059,-0.2055,-0.1967,-0.1888,-0.1902,-0.1838,-0.1581,-0.1438,-0.1392,-0.1194,-0.1148,-0.1165,-0.111,-0.1152,-0.1192,-0.1229,-0.1182,-0.0829,-0.0827,-0.0826,-0.0824,0,0,-0.1951,-0.1906,-0.1909,-0.1806,-0.1804,-0.166,-0.1618,-0.152,-0.1463,-0.1346,-0.1277,-0.1361,-0.1344,-0.1091,-0.1029,-0.0898,-0.1038,-0.0848,-0.128,-0.1369,-0.1404,-0.1501,-0.1472,0,0,0,0,0]},{"header":{"parameterUnit":"m.s-1","parameterCategory":2,"la1":30.2991,"la2":30.254,"lo1":-89.0895,"lo2":-89.0444,"dy":0.0017,"dx":0.0017,"nx":28,"ny":28,"refTime":"2025-04-17T21:00:00:Z","depth":"2","parameterNumber":3,"parameterNumberName":"V-component_of_CURRENTS"},"data":[0,0,0,0,0,0,0,0,0,0,0,0,0,0,0,0,0,0,0,0,0,0,0,0,0,0,0,0,0,0,0,0,0,0,0,0,0,0,0,0,0,0,0,0,0,0,0,0,0,0,0,0,0,0,0,0,0,0,-0.0523,-0.0522,0,-0.0429,-0.0428,-0.0426,-0.035,-0.035,-0.0349,-0.0349,-0.0176,-0.0172,-0.0168,0,0,0,0,0,0,0,0,0,0,0,0,0,-0.0549,-0.0549,-0.0523,-0.0522,-0.0521,-0.0429,-0.0427,-0.0426,-0.035,-0.035,-0.0349,-0.0348,-0.0177,-0.0173,-0.0168,0,0,0,0,0,0,0,0,0,0,0,0,0,-0.0502,-0.0549,-0.0523,-0.0474,-0.0469,-0.0429,-0.0427,-0.0425,-0.035,-0.035,-0.0349,-0.0348,-0.0179,-0.0173,-0.0167,-0.0144,0,0,-0.0148,-0.0145,0,0,0,0,0,0,0,0,-0.0505,-0.0501,-0.0483,-0.0478,-0.0472,-0.0403,-0.0373,-0.0328,-0.035,-0.0392,-0.0349,-0.0348,-0.0247,-0.0235,-0.0216,-0.0136,-0.0129,-0.0147,-0.0144,-0.0141,-0.0139,0,0,0,0,0,0,0,-0.0508,-0.0504,-0.0483,-0.0482,-0.0475,-0.0427,-0.042,-0.0364,-0.0322,-0.0389,-0.0384,-0.0378,-0.0243,-0.0223,-0.0211,-0.0126,-0.0148,-0.0142,-0.0138,-0.0136,0.0009,0.0009,0,0,0,0,0,0,-0.0532,-0.0508,-0.0486,-0.048,-0.049,-0.0428,-0.042,-0.0424,-0.0324,-0.0309,-0.0379,-0.0375,-0.0233,-0.0219,-0.0205,-0.0159,-0.0141,-0.0135,-0.0132,0.0009,0.0009,0.0009,0,0,0,0,0,0,-0.0533,-0.0531,-0.049,-0.0493,-0.0485,-0.0429,-0.0433,-0.0422,-0.0401,-0.0318,-0.0301,-0.037,-0.0232,-0.0214,-0.0159,-0.0152,-0.0133,-0.0127,0.0008,0.0009,0.0009,-0.0076,0,0,0,0,0,0,-0.0534,-0.0532,-0.054,-0.0496,-0.0486,-0.0473,-0.0434,-0.0421,-0.04,-0.0394,-0.0304,-0.0287,-0.023,-0.0169,-0.0153,-0.0143,-0.0122,0.0008,0.0008,0.0009,-0.0073,-0.0078,-0.0083,0,0,0,0,0,-0.0535,-0.0553,-0.0542,-0.0539,-0.05,-0.0473,-0.0464,-0.0418,-0.0401,-0.0396,-0.0336,-0.029,-0.0155,-0.0164,-0.0145,-0.0134,0.0008,0.0008,0.0009,-0.0071,-0.0077,-0.0083,0,0,0,0,0,0,-0.0567,-0.0545,-0.0532,-0.0542,-0.0514,-0.0462,-0.0454,-0.0427,-0.0377,-0.0369,-0.0291,-0.027,-0.0222,-0.0167,-0.0179,-0.0091,-0.0065,-0.0061,-0.0131,-0.0137,-0.0142,-0.0154,-0.0117,0,0,0,0,0,-0.0582,-0.0588,-0.0556,-0.0563,-0.0554,-0.0507,-0.049,-0.0462,-0.0415,-0.0393,-0.0332,-0.0264,-0.0206,-0.0165,-0.0111,-0.0061,-0.0004,-0.004,-0.0045,-0.005,-0.0047,0.0034,0.0036,0.001,0.001,0.001,0,0,-0.0595,-0.0585,-0.0588,-0.057,-0.0544,-0.0533,-0.0494,-0.0477,-0.0459,-0.0381,-0.0338,-0.0285,-0.0201,-0.015,-0.0121,-0.01,-0.0013,-0.0049,-0.0054,-0.0048,0.0034,0.0037,0.0039,0.001,0.001,0.001,0,0,-0.0625,-0.062,-0.0632,-0.0615,-0.0589,-0.0558,-0.0559,-0.0513,-0.0483,-0.0442,-0.0383,-0.0324,-0.0239,-0.0172,-0.0127,-0.0123,-0.0053,-0.011,-0.013,-0.0053,-0.005,-0.0047,0.002,0.003,-0.01,-0.01,-0.01,0,-0.0642,-0.0655,-0.0629,-0.0634,-0.0623,-0.0575,-0.0579,-0.0542,-0.0482,-0.0453,-0.0439,-0.031,-0.0244,-0.0165,-0.0165,-0.0133,-0.0087,-0.0118,-0.006,-0.0055,-0.0051,0.0017,0.0029,-0.0104,-0.0104,-0.0103,-0.0103,0,-0.0676,-0.0683,-0.069,-0.068,-0.0663,-0.0661,-0.0615,-0.059,-0.0553,-0.0506,-0.0438,-0.0352,-0.0269,-0.0243,-0.0201,-0.0134,-0.0113,-0.0088,-0.005,-0.0053,0.0018,0.0032,-0.011,-0.0109,-0.0107,-0.0106,0,0,-0.0718,-0.0716,-0.0717,-0.0722,-0.069,-0.0682,-0.0655,-0.0609,-0.0584,-0.052,-0.0475,-0.0378,-0.0332,-0.0279,-0.0216,-0.0147,-0.0078,-0.0112,-0.0106,-0.0056,0.0083,0.0097,0.0114,-0.005,-0.0048,-0.0047,0.0116,0,-0.075,-0.078,-0.0759,-0.0772,-0.0783,-0.0733,-0.0712,-0.0662,-0.0605,-0.0549,-0.0451,-0.039,-0.0343,-0.031,-0.0233,-0.0117,-0.0044,-0.0124,0.0088,0.0094,0.01,0.013,0.0097,0.0239,0.013,0.0132,0.0134,0,-0.0786,-0.0803,-0.0833,-0.0826,-0.0824,-0.0819,-0.0776,-0.0747,-0.0652,-0.0605,-0.0521,-0.0447,-0.0333,-0.0304,-0.0098,-0.0156,-0.0046,0.0042,0.0051,0.0106,0.0135,0.0229,0.0269,0.0158,0.0156,0.0154,0.0153,0,-0.0838,-0.0849,-0.0878,-0.0878,-0.0862,-0.0859,-0.0841,-0.0768,-0.0738,-0.064,-0.0602,-0.0463,-0.0381,-0.0237,-0.0055,-0.0075,0.0168,0.0174,0.0294,0.0296,0.0334,0.0335,0.032,0.032,0.0319,0.0319,0.0318,0,-0.0885,-0.0905,-0.0909,-0.0929,-0.0954,-0.0917,-0.0913,-0.0871,-0.0798,-0.075,-0.0639,-0.0563,-0.0362,-0.0202,-0.0054,0.0169,0.0182,0.0302,0.0346,0.0302,0.0299,0.028,0.0273,0.0325,0.0323,0.0322,0.0321,0,-0.0938,-0.094,-0.0976,-0.0981,-0.0985,-0.1003,-0.0981,-0.0969,-0.0892,-0.0825,-0.0799,-0.0615,-0.0401,-0.0198,0.0066,0.0184,0.0382,0.0456,0.0383,0.0415,0.0454,0.0441,0.0606,0.0608,0.061,0.0611,0.0612,0,-0.0968,-0.0996,-0.1029,-0.1057,-0.1064,-0.1081,-0.109,-0.1029,-0.1002,-0.0847,-0.0814,-0.0601,-0.0428,-0.0047,0.0196,0.0465,0.0462,0.0577,0.0537,0.0461,0.0488,0.0472,0.0457,0.0556,0.0557,0.0558,0.0558,0,-0.1023,-0.1035,-0.1066,-0.1133,-0.1161,-0.118,-0.1178,-0.1167,-0.1068,-0.098,-0.0811,-0.0662,-0.0298,0.0002,0.033,0.0477,0.0523,0.0595,0.0575,0.0472,0.0423,0.0446,0.0432,0.0563,0.0562,0.0562,0.0562,0.0561,-0.1056,-0.1097,-0.1143,-0.12,-0.1238,-0.1258,-0.1278,-0.1224,-0.1156,-0.0995,-0.0821,-0.0564,-0.0288,0.0185,0.0415,0.0615,0.0612,0.0655,0.0651,0.0646,0.0594,0.055,0.0703,0.0703,0.0704,0.0704,0.0704,0,-0.1093,-0.1141,-0.1205,-0.1265,-0.1315,-0.1316,-0.1323,-0.1312,-0.1225,-0.0996,-0.0796,-0.045,-0.0104,0.0173,0.0497,0.0686,0.0665,0.0709,0.0642,0.0637,0.0632,0.0576,0.0683,0.0683,0.0684,0.0684,0,0,-0.1114,-0.1184,-0.1221,-0.1312,-0.1356,-0.1425,-0.1436,-0.1365,-0.1232,-0.0991,-0.0756,-0.0456,-0.0106,0.0118,0.0363,0.0529,0.0524,0.0539,0.0537,0.0422,0.0415,0.0585,0.0491,0,0,0,0,0]}],[{"header":{"parameterUnit":"m.s-1","parameterCategory":2,"la1":30.2991,"la2":30.254,"lo1":-89.0895,"lo2":-89.0444,"dy":0.0017,"dx":0.0017,"nx":28,"ny":28,"refTime":"2025-04-17T21:00:00:Z","depth":"4","parameterNumber":2,"parameterNumberName":"U-component_of_CURRENTS"},"data":[0,0,0,0,0,0,0,0,0,0,0,0,0,0,0,0,0,0,0,0,0,0,0,0,0,0,0,0,0,0,0,0,0,0,0,0,0,0,0,0,0,0,0,0,0,0,0,0,0,0,0,0,0,0,0,0,0,0,-0.1977,-0.1978,0,-0.2052,-0.2053,-0.2054,-0.2116,-0.2117,-0.2118,-0.2119,-0.2144,-0.2144,-0.2144,0,0,0,0,0,0,0,0,0,0,0,0,0,-0.1862,-0.1864,-0.1976,-0.1978,-0.1979,-0.2052,-0.2053,-0.2054,-0.2116,-0.2117,-0.2118,-0.2119,-0.2145,-0.2144,-0.2144,0,0,0,0,0,0,0,0,0,0,0,0,0,-0.1919,-0.1865,-0.1976,-0.2021,-0.2026,-0.2052,-0.2053,-0.2054,-0.2116,-0.2117,-0.2118,-0.212,-0.2145,-0.2144,-0.2144,-0.2114,0,0,-0.2143,-0.2143,0,0,0,0,0,0,0,0,-0.1916,-0.1923,-0.2013,-0.2018,-0.2024,-0.2079,-0.2023,-0.2073,-0.2115,-0.2078,-0.2119,-0.212,-0.2119,-0.2121,-0.2128,-0.2115,-0.2116,-0.2143,-0.2143,-0.2143,-0.2143,0,0,0,0,0,0,0,-0.1912,-0.192,-0.2003,-0.2014,-0.2021,-0.203,-0.2039,-0.2032,-0.2086,-0.2082,-0.2087,-0.21,-0.2121,-0.2128,-0.2129,-0.2117,-0.2143,-0.2143,-0.2143,-0.2143,-0.2174,-0.2175,0,0,0,0,0,0,-0.1909,-0.1917,-0.2001,-0.2006,-0.1976,-0.2031,-0.2041,-0.2057,-0.2088,-0.2095,-0.2099,-0.2103,-0.2128,-0.2129,-0.213,-0.2173,-0.2143,-0.2143,-0.2142,-0.2173,-0.2174,-0.2175,0,0,0,0,0,0,-0.1906,-0.1916,-0.1998,-0.1965,-0.1977,-0.2032,-0.2049,-0.2058,-0.2103,-0.2102,-0.2108,-0.2139,-0.2129,-0.2131,-0.2162,-0.2172,-0.2142,-0.2142,-0.2172,-0.2173,-0.2175,-0.2209,0,0,0,0,0,0,-0.1903,-0.1914,-0.1938,-0.1965,-0.1979,-0.2026,-0.2048,-0.2059,-0.2108,-0.2115,-0.2137,-0.2139,-0.213,-0.2163,-0.2162,-0.2171,-0.2142,-0.2171,-0.2172,-0.2174,-0.2207,-0.2212,-0.2216,0,0,0,0,0,-0.1898,-0.1913,-0.1939,-0.195,-0.2005,-0.2027,-0.2034,-0.2076,-0.2109,-0.2123,-0.2154,-0.214,-0.2174,-0.2164,-0.2162,-0.2171,-0.217,-0.2172,-0.2174,-0.2205,-0.2211,-0.2216,0,0,0,0,0,0,-0.1876,-0.1922,-0.1951,-0.1981,-0.2012,-0.2039,-0.2062,-0.2094,-0.2131,-0.2148,-0.2155,-0.2158,-0.2183,-0.2178,-0.2167,-0.2187,-0.2168,-0.217,-0.2192,-0.2197,-0.2202,-0.2184,-0.2142,0,0,0,0,0,-0.1882,-0.1909,-0.1949,-0.1977,-0.1994,-0.2037,-0.206,-0.2088,-0.2119,-0.2139,-0.2159,-0.2178,-0.2183,-0.2196,-0.2194,-0.2209,-0.2182,-0.2215,-0.2219,-0.2223,-0.2209,-0.2196,-0.2198,-0.2183,-0.2183,-0.2183,0,0,-0.1884,-0.1912,-0.1931,-0.1975,-0.2004,-0.2029,-0.2054,-0.2092,-0.212,-0.2132,-0.2181,-0.2191,-0.2191,-0.2207,-0.2218,-0.2211,-0.2213,-0.2226,-0.2229,-0.2213,-0.2199,-0.22,-0.2201,-0.2184,-0.2184,-0.2184,0,0,-0.1881,-0.1924,-0.1943,-0.197,-0.2019,-0.2041,-0.2061,-0.2107,-0.2137,-0.2179,-0.2194,-0.2215,-0.2238,-0.2234,-0.2235,-0.2263,-0.2234,-0.2274,-0.2286,-0.2275,-0.2275,-0.2275,-0.2237,-0.2233,-0.2282,-0.2282,-0.2282,0,-0.1885,-0.1917,-0.195,-0.1974,-0.2003,-0.2051,-0.2077,-0.2105,-0.216,-0.2182,-0.2201,-0.2241,-0.2241,-0.2252,-0.2265,-0.2269,-0.2256,-0.2265,-0.2279,-0.2279,-0.2278,-0.2238,-0.2234,-0.2284,-0.2284,-0.2283,-0.2283,0,-0.1887,-0.1929,-0.194,-0.199,-0.2019,-0.2049,-0.2092,-0.213,-0.2178,-0.2206,-0.2244,-0.2252,-0.2275,-0.2281,-0.2282,-0.2285,-0.2274,-0.2281,-0.2261,-0.2281,-0.2239,-0.2233,-0.2287,-0.2286,-0.2285,-0.2285,0,0,-0.1855,-0.193,-0.194,-0.1974,-0.2036,-0.2057,-0.2102,-0.2149,-0.2186,-0.2229,-0.2267,-0.2278,-0.2296,-0.2296,-0.2303,-0.2294,-0.2277,-0.2294,-0.2293,-0.2247,-0.2238,-0.2098,-0.2079,-0.2299,-0.2298,-0.2298,-0.2207,0,-0.1854,-0.1902,-0.1941,-0.1994,-0.2023,-0.208,-0.2117,-0.2166,-0.221,-0.2253,-0.2268,-0.2299,-0.2299,-0.2319,-0.2311,-0.229,-0.2266,-0.2299,-0.2232,-0.2229,-0.2095,-0.2069,-0.2296,-0.2203,-0.2202,-0.2201,-0.22,0,-0.1838,-0.1879,-0.1932,-0.2009,-0.2028,-0.2068,-0.214,-0.2179,-0.2237,-0.2272,-0.2304,-0.2323,-0.2323,-0.2323,-0.2277,-0.2307,-0.2269,-0.2243,-0.224,-0.2087,-0.2078,-0.2181,-0.219,-0.2191,-0.2191,-0.2192,-0.2193,0,-0.1788,-0.1868,-0.1917,-0.1944,-0.2034,-0.2074,-0.2124,-0.219,-0.2219,-0.2285,-0.2306,-0.2326,-0.2324,-0.23,-0.2248,-0.2274,-0.2179,-0.2209,-0.2036,-0.2026,-0.2166,-0.2167,-0.2154,-0.2155,-0.2155,-0.2155,-0.2155,0,-0.1754,-0.1796,-0.1907,-0.1932,-0.1986,-0.2061,-0.2116,-0.2167,-0.2231,-0.224,-0.2312,-0.2296,-0.232,-0.2276,-0.2241,-0.2099,-0.2169,-0.2007,-0.1985,-0.2183,-0.2187,-0.2162,-0.2164,-0.2152,-0.2152,-0.2153,-0.2154,0,-0.1682,-0.176,-0.1819,-0.193,-0.1965,-0.2005,-0.21,-0.2123,-0.2203,-0.2214,-0.2232,-0.2265,-0.2199,-0.2187,-0.2123,-0.2051,-0.1961,-0.1893,-0.2076,-0.2071,-0.182,-0.1825,-0.1692,-0.1686,-0.1681,-0.1677,-0.1673,0,-0.1642,-0.1671,-0.1798,-0.1829,-0.1883,-0.1957,-0.199,-0.2092,-0.2103,-0.2158,-0.2132,-0.2115,-0.2111,-0.1887,-0.1917,-0.1818,-0.1799,-0.1745,-0.18,-0.1777,-0.1769,-0.1782,-0.1794,-0.1665,-0.1664,-0.1663,-0.1662,0,-0.1559,-0.1625,-0.1672,-0.1738,-0.1791,-0.1831,-0.1888,-0.1878,-0.1961,-0.2058,-0.1957,-0.1905,-0.1818,-0.1763,-0.1686,-0.163,-0.1785,-0.1693,-0.1704,-0.1756,-0.1743,-0.1744,-0.1761,-0.1644,-0.1647,-0.1648,-0.1649,0,-0.1491,-0.1504,-0.1575,-0.161,-0.1676,-0.1666,-0.1719,-0.1706,-0.1727,-0.1795,-0.1749,-0.1737,-0.1777,-0.1661,-0.1597,-0.1523,-0.1513,-0.1474,-0.1497,-0.1517,-0.1504,-0.1465,-0.1231,0,0,0,0,0,-0.141,-0.1404,-0.1433,-0.1455,-0.1514,-0.1535,-0.1623,-0.1675,-0.1757,-0.163,-0.1683,-0.1596,-0.1493,-0.15,-0.1383,-0.1532,-0.153,-0.1393,-0.1502,-0.1548,-0.1568,-0.1572,0,0,0,0,0,0,-0.1352,-0.138,-0.1383,-0.1313,-0.1286,-0.1315,-0.1357,-0.1418,-0.1361,-0.1455,-0.1401,-0.1483,-0.1406,-0.1504,-0.1335,-0.1338,-0.1373,-0.1408,-0.1403,-0.1537,-0.1555,-0.1571,-0.1582,0,0,0,0,0]},{"header":{"parameterUnit":"m.s-1","parameterCategory":2,"la1":30.2991,"la2":30.254,"lo1":-89.0895,"lo2":-89.0444,"dy":0.0017,"dx":0.0017,"nx":28,"ny":28,"refTime":"2025-04-17T21:00:00:Z","depth":"4","parameterNumber":3,"parameterNumberName":"V-component_of_CURRENTS"},"data":[0,0,0,0,0,0,0,0,0,0,0,0,0,0,0,0,0,0,0,0,0,0,0,0,0,0,0,0,0,0,0,0,0,0,0,0,0,0,0,0,0,0,0,0,0,0,0,0,0,0,0,0,0,0,0,0,0,0,-0.0421,-0.0421,0,-0.0373,-0.0372,-0.0372,-0.0342,-0.0342,-0.0342,-0.0342,-0.0269,-0.0267,-0.0265,0,0,0,0,0,0,0,0,0,0,0,0,0,-0.0423,-0.0423,-0.0421,-0.0421,-0.042,-0.0373,-0.0372,-0.0372,-0.0342,-0.0342,-0.0342,-0.0342,-0.027,-0.0267,-0.0265,0,0,0,0,0,0,0,0,0,0,0,0,0,-0.0402,-0.0424,-0.0421,-0.0401,-0.0399,-0.0373,-0.0372,-0.0371,-0.0342,-0.0342,-0.0342,-0.0342,-0.027,-0.0268,-0.0265,-0.0247,0,0,-0.0256,-0.0255,0,0,0,0,0,0,0,0,-0.0403,-0.0402,-0.0404,-0.0402,-0.04,-0.0365,-0.0347,-0.0329,-0.0342,-0.0361,-0.0342,-0.0342,-0.03,-0.0295,-0.0283,-0.0244,-0.024,-0.0256,-0.0254,-0.0253,-0.0252,0,0,0,0,0,0,0,-0.0405,-0.0403,-0.04,-0.0404,-0.0401,-0.0373,-0.037,-0.0343,-0.0329,-0.036,-0.0358,-0.0355,-0.0298,-0.0286,-0.0281,-0.0239,-0.0256,-0.0253,-0.0251,-0.025,-0.0155,-0.0155,0,0,0,0,0,0,-0.0418,-0.0405,-0.0402,-0.0399,-0.0404,-0.0373,-0.037,-0.0375,-0.033,-0.0324,-0.0355,-0.0354,-0.0291,-0.0285,-0.0279,-0.025,-0.0253,-0.025,-0.0248,-0.0156,-0.0155,-0.0154,0,0,0,0,0,0,-0.0418,-0.0418,-0.0404,-0.0402,-0.0398,-0.0374,-0.0379,-0.0374,-0.0368,-0.0328,-0.0321,-0.0356,-0.0291,-0.0283,-0.0253,-0.0247,-0.0249,-0.0246,-0.0157,-0.0156,-0.0155,-0.0196,0,0,0,0,0,0,-0.0419,-0.0419,-0.0429,-0.0403,-0.0399,-0.0398,-0.0379,-0.0373,-0.0367,-0.0365,-0.0326,-0.0319,-0.029,-0.0257,-0.025,-0.0243,-0.0244,-0.0158,-0.0156,-0.0155,-0.0196,-0.0196,-0.0197,0,0,0,0,0,-0.0419,-0.0435,-0.043,-0.043,-0.0414,-0.0398,-0.0394,-0.0374,-0.0368,-0.0369,-0.0335,-0.032,-0.0242,-0.0255,-0.0246,-0.0239,-0.0159,-0.0157,-0.0155,-0.0195,-0.0196,-0.0197,0,0,0,0,0,0,-0.0442,-0.0432,-0.0427,-0.044,-0.0425,-0.0394,-0.0396,-0.0381,-0.0356,-0.0355,-0.0315,-0.0305,-0.0277,-0.0249,-0.0263,-0.0204,-0.0196,-0.0193,-0.023,-0.023,-0.0231,-0.0241,-0.0241,0,0,0,0,0,-0.0453,-0.0463,-0.0444,-0.0455,-0.0451,-0.0425,-0.0418,-0.0405,-0.0379,-0.0368,-0.0338,-0.0299,-0.0261,-0.0241,-0.0209,-0.0179,-0.0147,-0.0165,-0.0166,-0.0167,-0.0167,-0.0106,-0.0101,-0.0148,-0.0148,-0.0148,0,0,-0.0465,-0.0461,-0.0467,-0.046,-0.0448,-0.0442,-0.0421,-0.0417,-0.0405,-0.0364,-0.0341,-0.0307,-0.0255,-0.0221,-0.0204,-0.0197,-0.0138,-0.0164,-0.0166,-0.0166,-0.0103,-0.0099,-0.0095,-0.0147,-0.0147,-0.0148,0,0,-0.0488,-0.0492,-0.0504,-0.0495,-0.0484,-0.0465,-0.0467,-0.0441,-0.0425,-0.0399,-0.0361,-0.0318,-0.0274,-0.0223,-0.0193,-0.0175,-0.0149,-0.0171,-0.0179,-0.0119,-0.0115,-0.0111,-0.0078,-0.007,-0.0166,-0.0166,-0.0166,0,-0.0504,-0.0515,-0.0504,-0.0508,-0.0504,-0.0478,-0.0481,-0.0458,-0.0423,-0.0404,-0.04,-0.031,-0.0268,-0.0205,-0.0197,-0.0177,-0.0154,-0.0185,-0.0121,-0.0117,-0.0112,-0.0078,-0.007,-0.0168,-0.0168,-0.0167,-0.0167,0,-0.0527,-0.0537,-0.0544,-0.054,-0.0533,-0.0535,-0.0503,-0.049,-0.0469,-0.0437,-0.0387,-0.0325,-0.0268,-0.0245,-0.0216,-0.0157,-0.0157,-0.0137,-0.0125,-0.011,-0.0075,-0.0066,-0.017,-0.017,-0.0169,-0.0169,0,0,-0.0557,-0.0561,-0.0564,-0.057,-0.0552,-0.055,-0.053,-0.0499,-0.0486,-0.044,-0.0409,-0.0328,-0.0297,-0.026,-0.0212,-0.0157,-0.0101,-0.014,-0.0136,-0.0119,0.0006,-0.0015,-0.0007,-0.0078,-0.0076,-0.0075,0.0011,0,-0.0578,-0.0602,-0.059,-0.0603,-0.0611,-0.0582,-0.0568,-0.0535,-0.05,-0.0464,-0.0385,-0.0344,-0.0301,-0.028,-0.0213,-0.0132,-0.0076,-0.0128,-0.0001,0.0002,-0.0027,0.0005,-0.0069,0.0018,0.0021,0.0022,0.0024,0,-0.06,-0.0615,-0.0639,-0.0641,-0.0642,-0.0645,-0.0623,-0.0604,-0.0539,-0.051,-0.0445,-0.0392,-0.0299,-0.0273,-0.0118,-0.016,-0.0081,-0.0018,-0.0012,-0.001,-0.0,0.0006,0.0042,0.004,0.0039,0.0038,0.0036,0,-0.0631,-0.0646,-0.0671,-0.0673,-0.067,-0.0675,-0.067,-0.0624,-0.0608,-0.0542,-0.0524,-0.041,-0.0357,-0.0241,-0.0108,-0.0115,0.005,0.0065,0.0123,0.0121,0.013,0.0126,0.0178,0.0178,0.0178,0.0178,0.0178,0,-0.0654,-0.0675,-0.0696,-0.0712,-0.0744,-0.0722,-0.0736,-0.071,-0.0667,-0.0643,-0.0556,-0.051,-0.0347,-0.0236,-0.0118,0.0027,0.0051,0.0126,0.015,0.0109,0.0101,0.0137,0.0131,0.0181,0.018,0.018,0.0179,0,-0.0679,-0.0692,-0.0728,-0.075,-0.0763,-0.0788,-0.0798,-0.0797,-0.0753,-0.072,-0.0704,-0.0574,-0.0427,-0.0271,-0.0073,0.0011,0.0152,0.0199,0.0126,0.0144,0.0182,0.0173,0.0269,0.027,0.027,0.027,0.027,0,-0.069,-0.0715,-0.0771,-0.0806,-0.0824,-0.0858,-0.0879,-0.085,-0.0838,-0.0754,-0.0734,-0.0598,-0.0496,-0.0233,-0.0075,0.0141,0.0173,0.023,0.0226,0.0181,0.0195,0.0186,0.0177,0.027,0.027,0.027,0.027,0,-0.0712,-0.0742,-0.0776,-0.0856,-0.09,-0.0935,-0.0956,-0.0949,-0.0895,-0.0864,-0.0737,-0.0596,-0.0429,-0.0228,-0.0064,0.0091,0.0183,0.0232,0.0233,0.0229,0.0183,0.0195,0.0186,0.0271,0.027,0.027,0.027,0,-0.0731,-0.0769,-0.0827,-0.0889,-0.0956,-0.0987,-0.0991,-0.0956,-0.0929,-0.0821,-0.078,-0.0592,-0.0476,-0.0253,-0.0101,0.0045,0.0084,0.0121,0.0129,0.013,0.0061,-0.002,0.0032,0,0,0,0,0,-0.074,-0.0787,-0.0854,-0.0922,-0.0989,-0.1022,-0.1029,-0.1013,-0.0962,-0.0875,-0.0818,-0.0656,-0.0407,-0.0297,-0.0151,-0.0116,0.0088,0.0056,0.0129,0.0273,0.0272,0.0213,0,0,0,0,0,0,-0.0749,-0.0816,-0.0852,-0.0935,-0.0989,-0.1048,-0.1053,-0.1016,-0.0948,-0.0876,-0.0735,-0.0648,-0.0403,-0.0493,-0.0158,-0.0115,-0.0054,0.0177,0.018,0.0273,0.0273,0.0272,0.0211,0,0,0,0,0]}]]